Weather History for Freeport, IL

Change the Weather History Date:

Sunday, September 30, 2012

  Actual Average Record
Temperature  
Mean Temperature 54 °F -  
Max Temperature 72 °F 69 °F 84 °F (1982)
Min Temperature 38 °F 45 °F 28 °F (1984)
Degree Days  
Heating Degree Days 10    
Growing Degree Days 4 (Base 50)    
Moisture  
Dew Point 41 °F    
Average Humidity 64    
Maximum Humidity 92    
Minimum Humidity 27    
Precipitation  
Precipitation 0.00 in - - ()
Sea Level Pressure  
Sea Level Pressure 29.99 in    
Wind  
Wind Speed 3 mph (NE)    
Max Wind Speed 14 mph    
Max Gust Speed 18 mph    
Visibility 10 miles    
Events      
Averages and records for this station are not official NWS values.
T = Trace of Precipitation, MM = Missing Value Source: NWS Daily Summary

Daily Weather History Graph

Daily Weather History Graph

Search for Another Location

Airport:

Trip Planner

Search our weather history database for the weather conditions in past years. The results will help you decide how hot, cold, wet, or windy it might be!

Date:

Astronomy

Sep. 30, 2012 Rise Set
Actual Time 6:54 AM CDT 6:40 PM CDT
Civil Twilight 6:26 AM CDT 7:08 PM CDT
Nautical Twilight 5:54 AM CDT 7:41 PM CDT
Astronomical Twilight 5:21 AM CDT 8:13 PM CDT
Moon 6:42 PM CDT (9/30) 7:27 AM CDT (9/30)
Length of Visible Light 12h 41m
Length of Day
11h 45m
Full, 100% of the Moon is Illuminated
Sep 30
Full
Oct 8
Last Quarter
Oct 15
New
Oct 21
First Quarter
Oct 29
Full

Hourly Weather History & Observations

Time (CDT) Temp. Windchill Dew Point Humidity Pressure Visibility Wind Dir Wind Speed Gust Speed Precip Events Conditions
12:15 AM 48.2 °F - 41.7 °F 78% 30.03 in 10.0 mi Calm Calm - N/A   Clear
12:55 AM 46.4 °F - 40.8 °F 81% 30.02 in 10.0 mi Calm Calm - N/A   Clear
1:03 AM 44.6 °F - 39.2 °F 81% 30.02 in 10.0 mi Calm Calm - N/A   Clear
1:15 AM 45.3 °F - 40.1 °F 82% 30.02 in 10.0 mi Calm Calm - N/A   Clear
1:35 AM 45.5 °F - 40.8 °F 84% 30.02 in 10.0 mi Calm Calm - N/A   Clear
1:55 AM 43.7 °F - 38.3 °F 81% 30.02 in 10.0 mi Calm Calm - N/A   Clear
2:15 AM 45.0 °F - 40.1 °F 83% 30.01 in 10.0 mi Calm Calm - N/A   Clear
2:35 AM 43.9 °F - 39.0 °F 83% 30.01 in 10.0 mi Calm Calm - N/A   Clear
2:55 AM 45.0 °F - 40.3 °F 84% 30.01 in 10.0 mi Calm Calm - N/A   Clear
3:15 AM 43.9 °F - 39.0 °F 83% 30.01 in 10.0 mi Calm Calm - N/A   Clear
3:35 AM 41.4 °F - 37.8 °F 87% 30.01 in 10.0 mi Calm Calm - N/A   Clear
3:55 AM 42.4 °F - 38.7 °F 86% 30.01 in 10.0 mi Calm Calm - N/A   Clear
4:15 AM 41.2 °F - 37.8 °F 88% 30.01 in 10.0 mi Calm Calm - N/A   Clear
4:35 AM 43.7 °F - 40.5 °F 88% 30.01 in 10.0 mi Calm Calm - N/A   Clear
4:55 AM 40.1 °F - 36.7 °F 88% 30.01 in 10.0 mi Calm Calm - N/A   Clear
5:15 AM 40.1 °F - 36.3 °F 86% 30.01 in 10.0 mi Calm Calm - N/A   Clear
5:35 AM 41.2 °F 39.2 °F 38.3 °F 89% 30.02 in 10.0 mi WSW 3.5 mph - N/A   Clear
5:55 AM 41.2 °F - 38.5 °F 90% 30.02 in 10.0 mi Calm Calm - N/A   Clear
6:15 AM 41.2 °F - 38.3 °F 89% 30.01 in 10.0 mi Calm Calm - N/A   Clear
6:35 AM 40.8 °F - 38.1 °F 90% 30.02 in 10.0 mi Calm Calm - N/A   Clear
6:55 AM 38.8 °F 36.5 °F 35.8 °F 89% 30.01 in 10.0 mi NE 3.5 mph - N/A   Clear
7:15 AM 38.7 °F 36.3 °F 36.5 °F 92% 30.01 in 10.0 mi NE 3.5 mph - N/A   Clear
7:35 AM 41.2 °F - 38.7 °F 91% 30.01 in 10.0 mi Calm Calm - N/A   Clear
7:55 AM 43.7 °F - 41.2 °F 91% 30.01 in 10.0 mi Calm Calm - N/A   Clear
8:15 AM 46.4 °F - 43.3 °F 89% 30.01 in 10.0 mi Calm Calm - N/A   Clear
8:35 AM 49.3 °F - 45.3 °F 86% 30.01 in 10.0 mi NNE 4.6 mph - N/A   Clear
8:55 AM 54.0 °F - 48.9 °F 83% 30.02 in 10.0 mi NE 8.1 mph - N/A   Clear
9:15 AM 56.5 °F - 50.4 °F 80% 30.02 in 10.0 mi NE 8.1 mph - N/A   Clear
9:35 AM 59.0 °F - 51.6 °F 76% 30.02 in 10.0 mi NE 9.2 mph - N/A   Clear
9:55 AM 61.7 °F - 51.4 °F 69% 30.02 in 10.0 mi NNE 9.2 mph - N/A   Clear
10:15 AM 62.4 °F - 48.6 °F 60% 30.02 in 10.0 mi NE 12.7 mph - N/A   Clear
10:35 AM 64.0 °F - 46.0 °F 52% 30.02 in 10.0 mi NE 12.7 mph - N/A   Clear
10:55 AM 64.2 °F - 44.4 °F 49% - 10.0 mi ENE 11.5 mph - N/A   Clear
11:15 AM 65.3 °F - 44.4 °F 47% 30.01 in 10.0 mi NE 13.8 mph 18.4 mph N/A   Clear
11:35 AM 65.8 °F - 45.7 °F 48% 30.01 in 10.0 mi ENE 12.7 mph 17.3 mph N/A   Clear
11:55 AM 66.7 °F - 46.0 °F 47% 30.01 in 10.0 mi NE 10.4 mph - N/A   Clear
12:15 PM 68.2 °F - 44.8 °F 43% 30.01 in 10.0 mi ENE 9.2 mph 18.4 mph N/A   Clear
12:35 PM 69.1 °F - 44.2 °F 41% 30.01 in 10.0 mi ENE 8.1 mph - N/A   Clear
12:55 PM 69.3 °F - 43.5 °F 39% 30.00 in 10.0 mi NE 10.4 mph - N/A   Clear
1:15 PM 69.3 °F - 43.3 °F 39% 29.99 in 10.0 mi ENE 6.9 mph - N/A   Clear
1:35 PM 69.3 °F - 42.8 °F 38% 29.99 in 10.0 mi NNE 5.8 mph - N/A   Clear
1:55 PM 69.4 °F - 39.6 °F 34% 29.99 in 10.0 mi North 6.9 mph - N/A   Clear
2:15 PM 70.9 °F - 39.2 °F 32% 29.98 in 10.0 mi North 9.2 mph - N/A   Clear
2:35 PM 71.6 °F - 37.4 °F 29% 29.97 in 10.0 mi NE 5.8 mph - N/A   Clear
2:55 PM 70.3 °F - 34.9 °F 27% 29.97 in 10.0 mi North 8.1 mph - N/A   Clear
3:15 PM 69.6 °F - 37.4 °F 31% 29.97 in 10.0 mi NNE 4.6 mph - N/A   Clear
3:35 PM 69.6 °F - 37.6 °F 31% 29.96 in 10.0 mi NE 5.8 mph - N/A   Clear
3:55 PM 69.3 °F - 36.7 °F 30% 29.96 in 10.0 mi East 8.1 mph - N/A   Clear
4:15 PM 69.3 °F - 36.0 °F 29% 29.96 in 10.0 mi NNE 5.8 mph - N/A   Clear
4:35 PM 69.3 °F - 37.4 °F 31% 29.95 in 10.0 mi NNE 6.9 mph - N/A   Clear
4:55 PM 69.3 °F - 39.9 °F 34% 29.95 in 10.0 mi NNE 8.1 mph - N/A   Clear
5:15 PM 68.2 °F - 38.3 °F 33% 29.95 in 10.0 mi North 4.6 mph - N/A   Clear
5:35 PM 66.4 °F - 39.7 °F 38% 29.96 in 10.0 mi NNE 6.9 mph - N/A   Clear
5:55 PM 65.1 °F - 40.3 °F 40% 29.96 in 10.0 mi NNE 3.5 mph - N/A   Clear
6:15 PM 64.0 °F - 39.4 °F 40% 29.96 in 10.0 mi NNE 4.6 mph - N/A   Clear
6:35 PM 62.1 °F - 39.4 °F 43% 29.96 in 10.0 mi NNE 3.5 mph - N/A   Clear
6:55 PM 61.2 °F - 41.2 °F 48% 29.96 in 10.0 mi Calm Calm - N/A   Clear
7:15 PM 59.0 °F - 42.4 °F 54% 29.96 in 10.0 mi Calm Calm - N/A   Clear
7:35 PM 56.1 °F - 41.4 °F 58% 29.96 in 10.0 mi East 3.5 mph - N/A   Clear
7:55 PM 54.1 °F - 40.8 °F 61% 29.96 in 10.0 mi East 5.8 mph - N/A   Clear
8:15 PM 54.0 °F - 41.9 °F 64% 29.96 in 10.0 mi East 5.8 mph - N/A   Clear
8:35 PM 54.0 °F - 42.3 °F 65% 29.97 in 10.0 mi East 5.8 mph - N/A   Clear
8:55 PM 54.0 °F - 42.8 °F 66% 29.98 in 10.0 mi East 5.8 mph - N/A   Clear
9:15 PM 54.0 °F - 43.3 °F 67% 29.98 in 10.0 mi East 3.5 mph - N/A   Clear
9:35 PM 54.0 °F - 43.3 °F 67% 29.99 in 10.0 mi East 4.6 mph - N/A   Clear
9:55 PM 51.6 °F - 42.1 °F 70% 29.98 in 10.0 mi East 5.8 mph - N/A   Clear
10:15 PM 51.4 °F - 42.3 °F 71% 29.98 in 10.0 mi East 5.8 mph - N/A   Clear
10:35 PM 51.4 °F - 42.3 °F 71% 29.98 in 10.0 mi East 4.6 mph - N/A   Clear
10:55 PM 49.1 °F - 41.4 °F 75% 29.98 in 10.0 mi East 5.8 mph - N/A   Clear
11:15 PM 46.4 °F 44.3 °F 41.0 °F 81% 29.98 in 10.0 mi ENE 4.6 mph - N/A   Clear
11:35 PM 47.1 °F - 41.0 °F 79% 29.98 in 10.0 mi East 4.6 mph - N/A   Clear
11:55 PM 46.4 °F 44.3 °F 40.1 °F 79% 29.97 in 10.0 mi ENE 4.6 mph - N/A   Clear